Regional Weather Roundup
Issued by NWS Charleston, WV

Home | Current Version | Previous Version | Text Only | Print | Product List | Glossary Off
Versions: 1 2 3 4 5 6 7 8 9 10 11 12 13 14 15 16 17 18 19 20 21 22 23 24 25 26 27 28 29 30 31 32 33 34 35 36 37 38 39 40 41 42 43 44 45 46 47 48 49 50

044
ASUS41 KRLX 201810
RWRRLX
West Virginia Regional Weather Roundup
National Weather Service Charleston WV
200 PM EDT FRI OCT 20 2017

Note: "fair" indicates few or no clouds below 12,000 feet with no
significant weather and/or obstructions to visibility.

WVZ003-201900-
Northern Panhandle of West Virginia

CITY           SKY/WX    TMP DP  RH WIND       PRES   REMARKS
WHEELING       SUNNY     70  35  27 N5        30.28F
$$

WVZ009-201900-
Northwest West Virginia

CITY           SKY/WX    TMP DP  RH WIND       PRES   REMARKS
PARKERSBURG    SUNNY     72  37  28 CALM      30.30F
$$

WVZ006-201900-
Western West Virginia

CITY           SKY/WX    TMP DP  RH WIND       PRES   REMARKS
HUNTINGTON     SUNNY     74  52  46 NE3       30.28F
$$

WVZ015-201900-
West Central West Virginia

CITY           SKY/WX    TMP DP  RH WIND       PRES   REMARKS
CHARLESTON     SUNNY     73  50  44 VRB5      30.28F
$$

WVZ022-031-201900-
North Central West Virginia

CITY           SKY/WX    TMP DP  RH WIND       PRES   REMARKS
CLARKSBURG     SUNNY     69  44  40 CALM      30.28F
MORGANTOWN     SUNNY     70  43  37 W3        30.29F
$$

WVZ025-035-042-045-201900-
Southern West Virginia

CITY           SKY/WX    TMP DP  RH WIND       PRES   REMARKS
BECKLEY        SUNNY     68  46  45 N9        30.31F
LOGAN            N/A     70  50  49 CALM      30.29F
BLUEFIELD      SUNNY     66  42  41 CALM      30.33F
LEWISBURG      SUNNY     69  50  51 SW7       30.30F
$$

WVZ047-201900-
Northern Mountains of West Virginia

CITY           SKY/WX    TMP DP  RH WIND       PRES   REMARKS
ELKINS         SUNNY     70  45  40 NW7       30.29F
$$

WVZ052-201900-
Eastern Panhandle of West Virginia

CITY           SKY/WX    TMP DP  RH WIND       PRES   REMARKS
MARTINSBURG    SUNNY     72  43  35 NW6       30.23F
PETERSBURG     SUNNY     72  49  44 CALM      30.24F
$$




USA.gov is the U.S. government's official web portal to all federal, state and local government web resources and services.